TimeCST,TemperatureF,Dew PointF,Humidity,Sea Level PressureIn,VisibilityMPH,Wind Direction,Wind SpeedMPH,Gust SpeedMPH,PrecipitationIn,Events,Conditions,WindDirDegrees,DateUTC
12:13 AM,6.8,-0.4,72,29.97,7.0,NNW,26.5,38.0,N/A,,Overcast,330,2013-02-19 06:13:00
12:33 AM,6.8,-0.4,72,29.98,7.0,NNW,23.0,33.4,N/A,,Overcast,340,2013-02-19 06:33:00
12:54 AM,5.0,-0.4,78,29.99,7.0,NNW,25.3,33.4,N/A,,Overcast,340,2013-02-19 06:54:00
1:13 AM,5.0,-0.4,78,30.00,10.0,NNW,21.9,29.9,N/A,,Overcast,330,2013-02-19 07:13:00
1:33 AM,5.0,-0.4,78,30.00,10.0,NNW,25.3,33.4,N/A,,Overcast,340,2013-02-19 07:33:00
1:54 AM,5.0,-0.4,78,30.01,7.0,NNW,25.3,35.7,N/A,,Overcast,340,2013-02-19 07:54:00
2:13 AM,3.2,-2.2,78,30.02,4.0,NNW,28.8,38.0,N/A,,Haze,340,2013-02-19 08:13:00
2:33 AM,3.2,-2.2,78,30.02,10.0,NNW,21.9,35.7,N/A,,Overcast,340,2013-02-19 08:33:00
2:53 AM,3.2,-2.2,78,30.03,7.0,NNW,26.5,34.5,N/A,,Overcast,330,2013-02-19 08:53:00
3:13 AM,3.2,-2.2,78,30.03,10.0,NNW,19.6,33.4,N/A,,Overcast,330,2013-02-19 09:13:00
3:33 AM,3.2,-2.2,78,30.03,10.0,NNW,21.9,33.4,N/A,,Overcast,330,2013-02-19 09:33:00
3:53 AM,3.2,-2.2,78,30.04,10.0,NW,19.6,31.1,N/A,,Overcast,320,2013-02-19 09:53:00
4:13 AM,3.2,-2.2,78,30.05,10.0,NNW,19.6,25.3,N/A,,Overcast,330,2013-02-19 10:13:00
4:33 AM,1.4,-4.0,78,30.06,10.0,NW,19.6,29.9,N/A,,Overcast,320,2013-02-19 10:33:00
4:53 AM,1.4,-5.8,72,30.07,10.0,NNW,23.0,33.4,N/A,,Overcast,330,2013-02-19 10:53:00
5:13 AM,1.4,-5.8,72,30.07,10.0,NNW,20.7,31.1,N/A,,Overcast,330,2013-02-19 11:13:00
5:33 AM,-0.4,-5.8,78,30.08,10.0,NNW,23.0,31.1,N/A,,Overcast,330,2013-02-19 11:33:00
5:53 AM,-2.2,-7.6,78,30.09,10.0,NNW,21.9,29.9,N/A,,Overcast,340,2013-02-19 11:53:00
6:13 AM,-2.2,-9.4,71,30.10,10.0,NW,18.4,32.2,N/A,,Scattered Clouds,320,2013-02-19 12:13:00
6:33 AM,-5.8,-11.2,77,30.11,10.0,NNW,24.2,29.9,N/A,,Scattered Clouds,330,2013-02-19 12:33:00
6:53 AM,-5.8,-11.2,77,30.12,10.0,NNW,17.3,34.5,N/A,,Mostly Cloudy,330,2013-02-19 12:53:00
7:13 AM,-5.8,-13.0,71,30.12,10.0,NNW,25.3,33.4,N/A,,Scattered Clouds,340,2013-02-19 13:13:00
7:33 AM,-7.6,-14.8,71,30.13,10.0,NNW,20.7,32.2,N/A,,Scattered Clouds,340,2013-02-19 13:33:00
7:53 AM,-7.6,-14.8,71,30.14,10.0,NNW,24.2,31.1,N/A,,Clear,340,2013-02-19 13:53:00
8:13 AM,-7.6,-14.8,71,30.16,10.0,NNW,18.4,32.2,N/A,,Scattered Clouds,330,2013-02-19 14:13:00
8:33 AM,-7.6,-14.8,71,30.17,10.0,NNW,17.3,29.9,N/A,,Overcast,330,2013-02-19 14:33:00
8:54 AM,-7.6,-14.8,71,30.18,10.0,NNW,20.7,28.8,N/A,,Overcast,340,2013-02-19 14:54:00
9:13 AM,-7.6,-14.8,71,30.18,7.0,NNW,24.2,28.8,N/A,,Overcast,340,2013-02-19 15:13:00
9:33 AM,-5.8,-14.8,65,30.18,7.0,NNW,23.0,31.1,N/A,,Mostly Cloudy,340,2013-02-19 15:33:00
9:54 AM,-5.8,-13.0,71,30.20,7.0,NNW,18.4,27.6,N/A,,Mostly Cloudy,340,2013-02-19 15:54:00
10:13 AM,-5.8,-13.0,71,30.20,10.0,North,17.3,24.2,N/A,,Mostly Cloudy,350,2013-02-19 16:13:00
10:33 AM,-5.8,-13.0,71,30.21,10.0,NNW,23.0,26.5,N/A,,Scattered Clouds,340,2013-02-19 16:33:00
10:53 AM,-4.0,-11.2,71,30.22,10.0,NNW,18.4,24.2,N/A,,Mostly Cloudy,330,2013-02-19 16:53:00
11:13 AM,-4.0,-11.2,71,30.22,10.0,NNW,18.4,25.3,N/A,,Mostly Cloudy,330,2013-02-19 17:13:00
11:33 AM,-2.2,-11.2,66,30.23,10.0,NNW,20.7,24.2,N/A,,Mostly Cloudy,330,2013-02-19 17:33:00
11:53 AM,-2.2,-9.4,71,30.24,10.0,NW,20.7,24.2,N/A,,Scattered Clouds,320,2013-02-19 17:53:00
12:33 PM,-2.2,-9.4,71,30.24,10.0,NNW,19.6,25.3,N/A,,Clear,330,2013-02-19 18:33:00
12:34 PM,-2.2,-9.4,71,30.24,10.0,NW,19.6,25.3,N/A,,Clear,320,2013-02-19 18:34:00
1:13 PM,-0.4,-9.4,66,30.24,10.0,NNW,20.7,27.6,N/A,,Clear,330,2013-02-19 19:13:00
1:33 PM,-0.4,-9.4,66,30.23,10.0,NNW,17.3,27.6,N/A,,Clear,330,2013-02-19 19:33:00
1:53 PM,1.4,-7.6,66,30.24,10.0,NNW,16.1,24.2,N/A,,Clear,330,2013-02-19 19:53:00
2:13 PM,1.4,-7.6,66,30.24,10.0,NW,16.1,26.5,N/A,,Clear,320,2013-02-19 20:13:00
2:33 PM,1.4,-7.6,66,30.25,10.0,NW,15.0,-,N/A,,Clear,320,2013-02-19 20:33:00
2:53 PM,1.4,-7.6,66,30.24,10.0,NNW,20.7,25.3,N/A,,Clear,330,2013-02-19 20:53:00
3:13 PM,3.2,-5.8,66,30.25,10.0,NNW,18.4,25.3,N/A,,Clear,330,2013-02-19 21:13:00
3:33 PM,3.2,-5.8,66,30.25,10.0,NNW,23.0,29.9,N/A,,Clear,340,2013-02-19 21:33:00
3:53 PM,3.2,-5.8,66,30.25,10.0,NNW,20.7,28.8,N/A,,Clear,330,2013-02-19 21:53:00
4:13 PM,3.2,-5.8,66,30.26,10.0,North,20.7,27.6,N/A,,Clear,350,2013-02-19 22:13:00
4:33 PM,1.4,-7.6,66,30.25,10.0,NNW,23.0,27.6,N/A,,Clear,340,2013-02-19 22:33:00
4:53 PM,1.4,-5.8,72,30.26,10.0,NNW,15.0,23.0,N/A,,Clear,340,2013-02-19 22:53:00
5:13 PM,1.4,-7.6,66,30.26,10.0,NNW,13.8,19.6,N/A,,Clear,340,2013-02-19 23:13:00
5:33 PM,1.4,-7.6,66,30.26,10.0,NNW,16.1,20.7,N/A,,Clear,340,2013-02-19 23:33:00
6:33 PM,-0.4,-7.6,72,30.25,10.0,North,15.0,21.9,N/A,,Clear,350,2013-02-20 00:33:00
6:53 PM,-0.4,-7.6,72,30.26,10.0,North,11.5,20.7,N/A,,Clear,350,2013-02-20 00:53:00
7:13 PM,-2.2,-7.6,78,30.28,10.0,NW,5.8,-,N/A,,Clear,320,2013-02-20 01:13:00
7:53 PM,-2.2,-7.6,78,30.28,10.0,North,5.8,-,N/A,,Clear,10,2013-02-20 01:53:00
8:13 PM,-2.2,-9.4,71,30.28,10.0,NNE,9.2,-,N/A,,Clear,20,2013-02-20 02:13:00
8:33 PM,-2.2,-9.4,71,30.28,10.0,NNE,10.4,-,N/A,,Clear,20,2013-02-20 02:33:00
8:53 PM,-2.2,-9.4,71,30.29,10.0,NNE,11.5,-,N/A,,Clear,20,2013-02-20 02:53:00
9:13 PM,-2.2,-9.4,71,30.30,10.0,North,10.4,-,N/A,,Clear,10,2013-02-20 03:13:00
9:33 PM,-2.2,-9.4,71,30.30,10.0,NNE,12.7,-,N/A,,Clear,20,2013-02-20 03:33:00
9:53 PM,-4.0,-9.4,78,30.30,10.0,NNE,12.7,-,N/A,,Clear,20,2013-02-20 03:53:00
10:13 PM,-5.8,-9.4,84,30.31,10.0,NNE,9.2,-,N/A,,Clear,30,2013-02-20 04:13:00
10:33 PM,-5.8,-11.2,77,30.30,10.0,NE,9.2,-,N/A,,Clear,40,2013-02-20 04:33:00
10:53 PM,-5.8,-11.2,77,30.32,10.0,North,9.2,-,N/A,,Clear,10,2013-02-20 04:53:00
11:13 PM,-5.8,-11.2,77,30.33,10.0,NNE,10.4,-,N/A,,Clear,20,2013-02-20 05:13:00
11:33 PM,-5.8,-11.2,77,30.34,10.0,NNE,8.1,-,N/A,,Clear,30,2013-02-20 05:33:00
11:53 PM,-5.8,-11.2,77,30.34,10.0,NNE,5.8,-,N/A,,Clear,20,2013-02-20 05:53:00